Location: Roland
(31.1349°N, 85.4372°W)
Time: 17:35:32
(UTC+00:00)

SR - Pass Details

Date: 22 April 2021
Orbit: 573 x 882 km, 66.7° (Epoch: 12 May)

Event Time Altitude Azimuth Distance (km) Brightness Sun altitude
Rises 21:55:44 0° 333° (NNW) 3,418 ? 28.7°
Reaches altitude 10° 21:58:17 10° 332° (NNW) 2,447 ? 28.1°
Maximum altitude 22:03:56 80° 247° (WSW) 804 ? 26.9°
Drops below altitude 10° 22:09:06 10° 160° (SSE) 2,241 ? 25.8°
Sets 22:11:21 0° 159° (SSE) 3,112 ? 25.3°
